[[{"header":{"parameterUnit":"m.s-1","parameterCategory":1,"la1":30.2991,"la2":30.254,"lo1":-89.0895,"lo2":-89.0444,"dy":0.0017,"dx":0.0017,"nx":28,"ny":28,"refTime":"2025-08-13T03:00:00:Z","depth":0,"parameterNumber":2,"parameterNumberName":"U-component_of_WINDS"},"data":[0,0,0,0,0,0,0,0,0,0,0,0,0,0,0,0,0,0,0,0,0,0,0,0,0,0,0,0,0,0,0,0,0,0,0,0,0,0,0,0,0,0,0,0,0,0,0,0,0,0,0,0,0,0,0,0,0,0,5.448,5.4483,0,5.4746,5.4749,5.4752,5.4752,5.4749,5.4745,5.4742,5.5012,5.5022,5.5033,0,0,0,0,0,0,0,0,0,0,0,0,0,5.3966,5.3976,5.4479,5.4483,5.4486,5.4746,5.4749,5.4753,5.4753,5.4749,5.4745,5.4741,5.5009,5.5021,5.5034,0,0,0,0,0,0,0,0,0,0,0,0,0,5.4206,5.3979,5.4479,5.4518,5.4524,5.4745,5.4749,5.4754,5.4754,5.4749,5.4743,5.4739,5.5005,5.502,5.5035,5.5235,0,0,5.5083,5.509,0,0,0,0,0,0,0,0,5.4193,5.4225,5.4509,5.4515,5.4523,5.4711,5.4667,5.4915,5.4755,5.4666,5.4742,5.4736,5.4916,5.4939,5.5,5.5248,5.5259,5.5084,5.5094,5.5101,5.5105,0,0,0,0,0,0,0,5.4176,5.4214,5.4585,5.4513,5.4521,5.452,5.4548,5.4714,5.4817,5.4674,5.4674,5.4706,5.4919,5.4985,5.5006,5.5263,5.5084,5.5098,5.5107,5.5114,5.5683,5.5688,0,0,0,0,0,0,5.4152,5.42,5.4576,5.4593,5.4342,5.4533,5.4565,5.4655,5.4815,5.4834,5.471,5.4705,5.4961,5.4988,5.5016,5.5256,5.51,5.5115,5.5124,5.5677,5.5684,5.569,0,0,0,0,0,0,5.4141,5.4186,5.4566,5.4397,5.4445,5.4548,5.4649,5.4663,5.4729,5.4843,5.486,5.4759,5.4958,5.4994,5.5179,5.5265,5.5122,5.5136,5.567,5.5679,5.5687,5.5741,0,0,0,0,0,0,5.4126,5.4182,5.426,5.4399,5.4454,5.4727,5.4655,5.4672,5.4757,5.4752,5.4893,5.4911,5.4956,5.5156,5.5195,5.5284,5.5148,5.5663,5.5674,5.5684,5.5732,5.575,5.5766,0,0,0,0,0,5.4108,5.4265,5.4264,5.4309,5.4554,5.4732,5.4763,5.4813,5.4764,5.4842,5.4914,5.4907,5.525,5.5175,5.5219,5.5314,5.5658,5.5671,5.5684,5.5724,5.5746,5.5765,0,0,0,0,0,0,5.4134,5.4284,5.4284,5.4491,5.4599,5.4731,5.4832,5.4836,5.4959,5.4949,5.5005,5.5036,5.522,5.5287,5.52,5.5513,5.5448,5.547,5.5463,5.5486,5.5502,5.5481,5.5161,0,0,0,0,0,5.4163,5.4297,5.442,5.459,5.4644,5.4729,5.4808,5.4837,5.495,5.4995,5.5081,5.519,5.5322,5.5408,5.5536,5.5742,5.577,5.5829,5.5846,5.5859,5.5877,5.5986,5.6012,5.5733,5.5733,5.5733,0,0,5.4226,5.4325,5.4405,5.4598,5.4685,5.4819,5.4767,5.4912,5.5012,5.5017,5.5197,5.5263,5.5389,5.5584,5.5674,5.5644,5.596,5.5876,5.5886,5.5896,5.6002,5.6028,5.6051,5.5742,5.574,5.5739,0,0,5.4408,5.4498,5.4647,5.4735,5.4867,5.4921,5.4957,5.509,5.5134,5.5315,5.5321,5.5439,5.5667,5.5754,5.5829,5.6041,5.6037,5.6081,5.617,5.6275,5.6297,5.6317,5.6388,5.6414,5.6099,5.6099,5.6099,0,5.4469,5.4673,5.4724,5.4869,5.4951,5.4963,5.5112,5.5195,5.5361,5.5417,5.5382,5.5665,5.5751,5.5964,5.6015,5.6077,5.6117,5.6064,5.629,5.631,5.6329,5.6398,5.6425,5.6103,5.6103,5.6102,5.6102,0,5.4739,5.488,5.4985,5.5145,5.524,5.5387,5.5457,5.5547,5.5567,5.5625,5.5807,5.591,5.6057,5.611,5.6132,5.6326,5.6303,5.6279,5.6213,5.6359,5.6424,5.6452,5.6109,5.6108,5.6107,5.6106,0,0,5.4945,5.5129,5.5167,5.5237,5.5383,5.5492,5.5638,5.5782,5.5856,5.597,5.6091,5.6282,5.6259,5.6343,5.6374,5.6468,5.6624,5.6431,5.6435,5.646,5.6839,5.6854,5.6884,5.6623,5.6629,5.6633,5.6827,0,5.5139,5.54,5.5448,5.5674,5.5802,5.5814,5.594,5.6041,5.6099,5.6214,5.6278,5.641,5.6372,5.6422,5.6516,5.6585,5.67,5.6572,5.6733,5.6738,5.6698,5.6919,5.6937,5.7115,5.6854,5.6858,5.6861,0,5.5402,5.5521,5.5759,5.5883,5.5939,5.6052,5.6186,5.6298,5.6412,5.6447,5.6539,5.6559,5.6708,5.6637,5.6841,5.6753,5.6822,5.6865,5.6873,5.6888,5.6806,5.6936,5.7174,5.7199,5.6903,5.69,5.6897,0,5.5522,5.5743,5.5913,5.5974,5.6125,5.6203,5.6269,5.6378,5.646,5.6577,5.663,5.6763,5.6835,5.6936,5.6989,5.6934,5.7188,5.7123,5.7218,5.7216,5.7268,5.7264,5.7517,5.7319,5.7318,5.7318,5.7317,0,5.5733,5.5877,5.5969,5.6073,5.6234,5.6288,5.6445,5.6509,5.6606,5.672,5.6739,5.6846,5.6912,5.7028,5.7071,5.7231,5.7264,5.7294,5.7303,5.7291,5.7286,5.7334,5.7321,5.7325,5.7323,5.7322,5.7321,0,5.5894,5.5963,5.6148,5.6274,5.6309,5.6422,5.6529,5.6629,5.6686,5.6831,5.6868,5.6956,5.7093,5.7157,5.7327,5.7356,5.7536,5.7538,5.7497,5.75,5.7589,5.7578,5.788,5.792,5.7698,5.77,5.7702,0,5.6022,5.6133,5.6271,5.635,5.6418,5.6544,5.6628,5.6684,5.677,5.6906,5.6989,5.7127,5.7239,5.7457,5.7535,5.7664,5.7667,5.7764,5.7687,5.7669,5.7664,5.7655,5.7664,5.7777,5.7779,5.7781,5.7782,0,5.6241,5.6269,5.6389,5.652,5.6619,5.6726,5.683,5.6892,5.6965,5.706,5.72,5.7287,5.746,5.7595,5.7728,5.7794,5.7799,5.7806,5.7834,5.7821,5.7791,5.7804,5.7531,5.7799,5.7797,5.7796,5.7795,5.7794,5.6388,5.6485,5.6596,5.6728,5.6812,5.6908,5.7007,5.7076,5.7194,5.7339,5.7365,5.7513,5.762,5.78,5.787,5.7985,5.7962,5.8004,5.8014,5.8022,5.8025,5.7775,5.801,5.801,5.8009,5.8009,5.8009,0,5.6604,5.6675,5.6797,5.6941,5.7044,5.7041,5.7155,5.7241,5.7371,5.7471,5.7581,5.774,5.787,5.7958,5.8089,5.8164,5.8169,5.8196,5.8189,5.8203,5.804,5.8001,5.8189,5.8189,5.8189,5.8189,5.8189,5.8189,5.6728,5.6891,5.6931,5.7135,5.7206,5.7351,5.7416,5.7503,5.7583,5.7759,5.7868,5.7924,5.8018,5.8156,5.8274,5.8296,5.8342,5.8369,5.839,5.8235,5.8216,5.8197,5.816,5.8379,5.838,5.8543,5.8544,5.8546]},{"header":{"parameterUnit":"m.s-1","parameterCategory":1,"la1":30.2991,"la2":30.254,"lo1":-89.0895,"lo2":-89.0444,"dy":0.0017,"dx":0.0017,"nx":28,"ny":28,"refTime":"2025-08-13T03:00:00:Z","depth":0,"parameterNumber":3,"parameterNumberName":"V-component_of_WINDS"},"data":[0,0,0,0,0,0,0,0,0,0,0,0,0,0,0,0,0,0,0,0,0,0,0,0,0,0,0,0,0,0,0,0,0,0,0,0,0,0,0,0,0,0,0,0,0,0,0,0,0,0,0,0,0,0,0,0,0,0,1.9647,1.9648,0,1.9748,1.975,1.9751,1.9788,1.9788,1.9787,1.9787,1.9887,1.989,1.9893,0,0,0,0,0,0,0,0,0,0,0,0,0,1.9479,1.9482,1.9647,1.9648,1.9649,1.9748,1.975,1.9751,1.9788,1.9788,1.9787,1.9787,1.9886,1.9889,1.9893,0,0,0,0,0,0,0,0,0,0,0,0,0,1.9563,1.9483,1.9647,1.968,1.9684,1.9748,1.975,1.9751,1.9788,1.9788,1.9787,1.9787,1.9885,1.9889,1.9893,1.9931,0,0,1.9907,1.9909,0,0,0,0,0,0,0,0,1.9559,1.957,1.9674,1.9678,1.9682,1.9755,1.9727,1.9811,1.9788,1.9748,1.9787,1.9786,1.9843,1.9851,1.9871,1.9935,1.994,1.9907,1.991,1.9912,1.9913,0,0,0,0,0,0,0,1.9553,1.9565,1.9687,1.9675,1.968,1.9688,1.9699,1.9743,1.9797,1.9752,1.9755,1.9766,1.9845,1.9867,1.9874,1.9941,1.9907,1.9911,1.9914,1.9916,2.0038,2.0038,0,0,0,0,0,0,1.9542,1.956,1.9684,1.969,1.9618,1.9691,1.9704,1.9732,1.9797,1.9806,1.9767,1.9768,1.9859,1.9868,1.9877,1.9924,1.9912,1.9916,1.9919,2.0037,2.0038,2.0038,0,0,0,0,0,0,1.9538,1.9553,1.968,1.9626,1.9643,1.9695,1.9726,1.9734,1.9756,1.9808,1.9817,1.9779,1.9859,1.9871,1.9917,1.9928,1.9918,1.9922,2.0036,2.0037,2.0038,2.0018,0,0,0,0,0,0,1.9533,1.9551,1.9568,1.9626,1.9646,1.9719,1.9727,1.9737,1.9764,1.9766,1.9822,1.9831,1.986,1.991,1.9921,1.9934,1.9926,2.0036,2.0037,2.0038,2.0018,2.0018,2.0018,0,0,0,0,0,1.9527,1.9558,1.9568,1.9583,1.9667,1.972,1.9731,1.9765,1.9765,1.978,1.9813,1.9829,1.9924,1.9914,1.9927,1.9941,2.0035,2.0037,2.0038,2.0018,2.0018,2.0018,0,0,0,0,0,0,1.9499,1.9566,1.9579,1.9629,1.9668,1.9726,1.9748,1.9764,1.9804,1.9804,1.9843,1.9855,1.9897,1.9924,1.9911,1.9979,1.998,1.9984,1.9961,1.9961,1.9961,1.9954,1.9929,0,0,0,0,0,1.9498,1.9537,1.9593,1.9632,1.9651,1.9695,1.972,1.9742,1.9784,1.9801,1.9837,1.9876,1.9914,1.9939,1.9978,2.0021,2.0032,2.0036,2.0037,2.0036,2.004,2.0062,2.0064,2.0043,2.0043,2.0043,0,0,1.9498,1.9539,1.9561,1.9627,1.966,1.9698,1.9709,1.9749,1.9776,1.9806,1.9852,1.988,1.9925,1.9969,1.999,1.9993,2.0048,2.0038,2.0038,2.0041,2.0064,2.0066,2.0067,2.0044,2.0043,2.0043,0,0,1.9516,1.9552,1.9587,1.962,1.967,1.9699,1.9707,1.9762,1.9782,1.9828,1.985,1.9882,1.9948,1.9979,2.0004,2.003,2.0045,2.0041,2.0042,2.0063,2.0065,2.0066,2.0075,2.0077,2.0043,2.0043,2.0043,0,1.9509,1.9568,1.9603,1.9641,1.9668,1.9697,1.9732,1.9761,1.9821,1.9838,1.9839,1.9921,1.9954,2.0005,2.0011,2.003,2.0039,2.0035,2.0062,2.0064,2.0066,2.0074,2.0077,2.0042,2.0043,2.0043,2.0043,0,1.9555,1.9595,1.9618,1.9675,1.9704,1.9741,1.9779,1.9804,1.9823,1.9851,1.9896,1.9936,1.9982,1.9995,2.0014,2.0048,2.0047,2.0055,2.0057,2.0067,2.0075,2.0078,2.0041,2.0042,2.0042,2.0042,0,0,1.9561,1.9635,1.9643,1.9668,1.9724,1.9755,1.979,1.9836,1.9856,1.9895,1.9925,1.9979,1.9985,2.0013,2.0034,2.0053,2.0069,2.0058,2.006,2.0058,2.0107,2.0101,2.0104,2.0079,2.008,2.008,2.0103,0,1.9586,1.9654,1.9685,1.9738,1.9774,1.98,1.983,1.9866,1.9892,1.9925,1.9953,1.999,1.9997,2.0013,2.0033,2.0063,2.0079,2.0062,2.0106,2.0107,2.0094,2.0109,2.0104,2.0123,2.0106,2.0107,2.0107,0,1.9625,1.9665,1.9721,1.977,1.9787,1.9814,1.9857,1.9889,1.9929,1.9946,1.9975,1.9996,2.0032,2.003,2.0079,2.0066,2.0086,2.0103,2.0104,2.011,2.0108,2.0115,2.013,2.0133,2.0113,2.0113,2.0112,0,1.9622,1.9689,1.9731,1.9752,1.9811,1.9829,1.9854,1.9894,1.9919,1.9955,1.9971,2.0011,2.0033,2.0062,2.0091,2.0088,2.0137,2.0138,2.0151,2.015,2.0161,2.016,2.018,2.0172,2.0172,2.0172,2.0172,0,1.9648,1.9681,1.9731,1.9756,1.9793,1.9827,1.9862,1.9889,1.9924,1.9953,1.9977,2.0004,2.0041,2.0072,2.0095,2.0131,2.0141,2.0154,2.016,2.0153,2.0151,2.0166,2.0166,2.0173,2.0173,2.0173,2.0173,0,1.9652,1.9686,1.9734,1.9785,1.9798,1.9823,1.9866,1.989,1.9916,1.9953,1.9964,2.0004,2.0042,2.0074,2.0123,2.0138,2.0175,2.0182,2.0162,2.0165,2.0175,2.0173,2.0206,2.0211,2.02,2.02,2.02,0,1.9666,1.9692,1.9745,1.9768,1.9792,1.9828,1.9853,1.9886,1.991,1.9956,1.9975,2.0014,2.0047,2.0105,2.0137,2.0174,2.0182,2.019,2.0188,2.0178,2.0181,2.018,2.0182,2.0191,2.0191,2.0191,2.0191,0,1.9687,1.9702,1.9738,1.9779,1.9808,1.9842,1.9876,1.9892,1.9931,1.9957,1.9996,2.0022,2.0071,2.0109,2.0149,2.0172,2.0187,2.0191,2.0196,2.0189,2.0176,2.0182,2.0162,2.0191,2.0191,2.0191,2.0191,2.0191,1.9696,1.9719,1.976,1.9799,1.9828,1.9859,1.9884,1.9913,1.9946,1.999,2.0007,2.0046,2.0082,2.0137,2.016,2.0189,2.0192,2.0199,2.0201,2.0202,2.02,2.017,2.0197,2.0197,2.0197,2.0197,2.0197,0,1.9717,1.9744,1.9779,1.9827,1.9856,1.9868,1.9906,1.9929,1.9964,1.9997,2.0029,2.0072,2.0107,2.0142,2.0179,2.0196,2.0203,2.0204,2.0204,2.0208,2.0197,2.0189,2.0197,2.0197,2.0197,2.0197,2.0197,2.0197,1.9732,1.9772,1.9792,1.9846,1.9872,1.9911,1.9932,1.9959,1.9986,2.0033,2.0063,2.0086,2.0119,2.0158,2.019,2.0199,2.0212,2.021,2.0221,2.021,2.0209,2.0209,2.0202,2.0213,2.0213,2.0231,2.0231,2.0231]}]]